Location: York
(31.8935°S, 116.7682°E)
Time: 15:21:39
(UTC+08:00)

Vanguard 3 - Visible Passes

Search period start: 15 June 2021 00:00
Search period end: 25 June 2021 00:00
Orbit: 508 x 3261 km, 33.3° (Epoch: 14 June)

Date Brightness Start Highest point End Pass type
(mag) Time Alt. Az. Time Alt. Az. Time Alt. Az.
15 Jun 10.2 18:27:28 10° NW 18:46:30 60° NNE 18:58:25 26° E visible
15 Jun 9.6 20:43:08 10° WNW 21:02:57 87° NW 21:02:57 87° NW visible
15 Jun 10.9 23:01:54 10° W 23:07:30 24° W 23:07:30 24° W visible
16 Jun 10.6 17:12:40 10° NNW 17:29:37 45° NE 17:47:01 10° ESE visible
16 Jun 9.8 19:25:57 10° WNW 19:46:04 79° NNE 19:52:55 49° E visible
16 Jun 10.1 21:43:30 10° W 21:57:28 54° W 21:57:28 54° W visible
17 Jun 10.2 18:09:55 10° NW 18:28:43 65° NNE 18:42:52 21° E visible
17 Jun 9.6 20:25:33 10° WNW 20:46:00 89° S 20:47:25 81° ESE visible
17 Jun 10.7 22:44:08 10° W 22:51:57 30° W 22:51:57 30° W visible
18 Jun 9.9 19:08:30 10° WNW 19:28:25 82° NNE 19:37:20 41° E visible
18 Jun 9.9 21:25:51 10° W 21:41:52 64° W 21:41:52 64° W visible
18 Jun 11.3 23:44:40 10° WSW 23:46:25 14° WSW 23:46:25 14° WSW visible
19 Jun 10.2 17:52:34 10° NW 18:10:54 70° NNE 18:27:15 17° ESE visible
19 Jun 9.6 20:08:05 10° W 20:28:31 87° S 20:31:48 70° ESE visible
19 Jun 10.5 22:26:23 10° W 22:36:20 37° W 22:36:20 37° W visible
20 Jun 10.0 18:51:12 10° WNW 19:10:44 86° NNE 19:21:42 35° E visible
20 Jun 9.8 21:08:17 10° W 21:26:14 74° WSW 21:26:14 74° WSW visible
20 Jun 11.2 23:26:52 10° WSW 23:30:47 19° WSW 23:30:47 19° WSW visible
21 Jun 10.2 17:35:24 10° WNW 17:53:06 74° NNE 18:11:36 12° ESE visible
21 Jun 9.7 19:50:44 10° W 20:11:00 86° S 20:16:08 60° ESE visible
21 Jun 10.4 22:08:40 10° WSW 22:20:41 45° W 22:20:41 45° W visible
22 Jun 10.1 18:34:04 10° WNW 18:53:03 88° NNE 19:06:03 29° E visible
22 Jun 9.7 20:50:47 10° W 21:10:35 85° SW 21:10:35 85° SW visible
22 Jun 11.0 23:09:04 10° WSW 23:15:08 25° W 23:15:08 25° W visible
23 Jun 10.2 17:18:24 10° WNW 17:35:20 78° NNE 17:55:17 10° ESE visible
23 Jun 9.8 19:33:31 10° W 19:53:26 86° S 20:00:30 51° E visible
23 Jun 10.2 21:50:59 10° WSW 22:05:03 54° W 22:05:03 54° W visible
24 Jun 10.1 18:17:03 10° WNW 18:35:23 89° S 18:50:26 23° E visible
24 Jun 9.7 20:33:23 10° W 20:53:48 89° S 20:54:59 83° E visible
24 Jun 10.8 22:51:18 10° WSW 22:59:32 30° W 22:59:32 30° W visible
